| time (UTC) | temp C | wind direction | speed KPH | gust KPH | rain 1hr cm | rain 24hr cm | rain mn cm | humidity % | barometer mb |
| 20260507171553 | 17 | 234 | 3.2 | 12.9 | 0.00 | 0.00 | 0.00 | 69 | 1010.2 |
| 20260507170050 | 17 | 220 | 3.2 | 19.3 | 0.00 | 0.00 | 0.00 | 69 | 1010.2 |
| 20260507164542 | 17 | 237 | 4.8 | 16.1 | 0.00 | 0.00 | 0.00 | 67 | 1010.2 |
| 20260507163043 | 17 | 144 | 8.0 | 16.1 | 0.00 | 0.00 | 0.00 | 66 | 1010.2 |
| 20260507161541 | 17 | 212 | 6.4 | 25.7 | 0.00 | 0.00 | 0.00 | 66 | 1010.4 |
| 20260507160040 | 17 | 218 | 6.4 | 20.9 | 0.00 | 0.00 | 0.00 | 64 | 1010.3 |
| 20260507154549 | 18 | 212 | 4.8 | 16.1 | 0.00 | 0.00 | 0.00 | 63 | 1010.3 |
| 20260507153052 | 18 | 174 | 4.8 | 12.9 | 0.00 | 0.00 | 0.00 | 61 | 1010.2 |
| 20260507151543 | 18 | 163 | 6.4 | 12.9 | 0.00 | 0.00 | 0.00 | 62 | 1010.2 |
| 20260507150043 | 18 | 202 | 6.4 | 17.7 | 0.00 | 0.00 | 0.00 | 60 | 1010.4 |
| 20260507144548 | 18 | 208 | 8.0 | 17.7 | 0.00 | 0.00 | 0.00 | 61 | 1010.3 |
| 20260507143048 | 18 | 138 | 6.4 | 20.9 | 0.00 | 0.00 | 0.00 | 60 | 1010.4 |
| 20260507141544 | 18 | 190 | 4.8 | 14.5 | 0.00 | 0.00 | 0.00 | 60 | 1010.6 |
| 20260507140049 | 18 | 248 | 4.8 | 17.7 | 0.00 | 0.00 | 0.00 | 60 | 1010.8 |
| 20260507134544 | 18 | 260 | 8.0 | 19.3 | 0.00 | 0.00 | 0.00 | 61 | 1011.2 |
| 20260507133041 | 18 | 239 | 8.0 | 19.3 | 0.00 | 0.00 | 0.00 | 63 | 1011.1 |
| 20260507131553 | 17 | 222 | 4.8 | 14.5 | 0.00 | 0.00 | 0.00 | 66 | 1011.4 |
| 20260507130043 | 17 | 155 | 11.3 | 22.5 | 0.00 | 0.00 | 0.00 | 68 | 1011.5 |
| 20260507124552 | 17 | 212 | 9.7 | 19.3 | 0.00 | 0.00 | 0.00 | 67 | 1011.4 |
| 20260507123043 | 18 | 144 | 6.4 | 22.5 | 0.00 | 0.00 | 0.00 | 65 | 1011.7 |
| 20260507121543 | 19 | 168 | 8.0 | 19.3 | 0.00 | 0.00 | 0.00 | 62 | 1011.4 |
| 20260507120043 | 18 | 181 | 8.0 | 19.3 | 0.00 | 0.00 | 0.00 | 63 | 1011.5 |
| 20260507114543 | 19 | 208 | 6.4 | 17.7 | 0.00 | 0.00 | 0.00 | 60 | 1011.4 |
| 20260507113038 | 18 | 204 | 4.8 | 14.5 | 0.00 | 0.00 | 0.00 | 61 | 1011.6 |
| 20260507111544 | 18 | 98 | 4.8 | 16.1 | 0.00 | 0.00 | 0.00 | 61 | 1011.8 |
| 20260507110043 | 18 | 157 | 6.4 | 17.7 | 0.00 | 0.00 | 0.00 | 61 | 1011.9 |
| 20260507104549 | 18 | 155 | 8.0 | 19.3 | 0.00 | 0.00 | 0.00 | 61 | 1012.0 |
| 20260507103047 | 18 | 128 | 4.8 | 16.1 | 0.00 | 0.00 | 0.00 | 62 | 1012.0 |
| 20260507101546 | 18 | 172 | 4.8 | 11.3 | 0.00 | 0.00 | 0.00 | 62 | 1012.1 |
| 20260507100044 | 17 | 229 | 3.2 | 11.3 | 0.00 | 0.00 | 0.00 | 63 | 1012.2 |
| 20260507094544 | 17 | 174 | 3.2 | 17.7 | 0.00 | 0.00 | 0.00 | 63 | 1012.6 |
| 20260507093049 | 17 | 206 | 1.6 | 8.0 | 0.00 | 0.00 | 0.00 | 66 | 1012.5 |
| 20260507091549 | 17 | 201 | 4.8 | 8.0 | 0.00 | 0.00 | 0.00 | 67 | 1012.5 |
| 20260507090047 | 16 | 0 | 3.2 | 9.7 | 0.00 | 0.00 | 0.00 | 69 | 1012.6 |
| 20260507084546 | 16 | 205 | 3.2 | 11.3 | 0.00 | 0.00 | 0.00 | 71 | 1012.5 |
| 20260507083044 | 16 | 265 | 1.6 | 12.9 | 0.00 | 0.00 | 0.00 | 71 | 1012.6 |
| 20260507081548 | 16 | 172 | 3.2 | 9.7 | 0.00 | 0.00 | 0.00 | 73 | 1012.8 |
| 20260507080051 | 15 | 185 | 3.2 | 14.5 | 0.00 | 0.00 | 0.00 | 75 | 1012.7 |
| 20260507074557 | 15 | 174 | 3.2 | 9.7 | 0.00 | 0.00 | 0.00 | 76 | 1012.9 |
| 20260507073043 | 14 | 0 | 0.0 | 0.0 | 0.00 | 0.00 | 0.00 | 75 | 1013.0 |
| 20260507071543 | 13 | 0 | 0.0 | 0.0 | 0.00 | 0.00 | 0.00 | 78 | 1012.8 |
| 20260507070043 | 12 | 0 | 0.0 | 0.0 | 0.00 | 0.00 | 0.00 | 82 | 1012.7 |
| 20260507064540 | 11 | 0 | 0.0 | 1.6 | 0.00 | 0.00 | 0.00 | 84 | 1012.6 |
| 20260507063045 | 10 | 0 | 0.0 | 1.6 | 0.00 | 0.00 | 0.00 | 88 | 1012.5 |
| 20260507061544 | 8 | 0 | 0.0 | 0.0 | 0.00 | 0.00 | 0.00 | 95 | 1012.3 |
| 20260507060045 | 6 | 0 | 0.0 | 0.0 | 0.00 | 0.00 | 0.00 | 95 | 1012.6 |
| 20260507054604 | 6 | 0 | 0.0 | 1.6 | 0.00 | 0.00 | 0.00 | 94 | 1012.6 |
| 20260507053052 | 6 | 0 | 0.0 | 3.2 | 0.00 | 0.00 | 0.00 | 94 | 1012.3 |
| 20260507051542 | 6 | 0 | 0.0 | 0.0 | 0.00 | 0.00 | 0.00 | 94 | 1012.2 |
| 20260507050054 | 6 | 0 | 0.0 | 0.0 | 0.00 | 0.00 | 0.00 | 94 | 1012.2 |
| 20260507044549 | 6 | 0 | 0.0 | 0.0 | 0.00 | 0.00 | 0.00 | 94 | 1012.2 |
| 20260507043046 | 6 | 0 | 0.0 | 1.6 | 0.00 | 0.00 | 0.00 | 94 | 1012.1 |
| 20260507041548 | 7 | 0 | 0.0 | 0.0 | 0.00 | 0.00 | 0.00 | 94 | 1012.1 |
| 20260507040044 | 7 | 0 | 0.0 | 0.0 | 0.00 | 0.00 | 0.00 | 94 | 1012.1 |
| 20260507034555 | 7 | 0 | 0.0 | 0.0 | 0.00 | 0.00 | 0.00 | 94 | 1012.1 |
| 20260507033053 | 7 | 0 | 0.0 | 0.0 | 0.00 | 0.00 | 0.00 | 93 | 1012.2 |
| 20260507031602 | 7 | 0 | 0.0 | 0.0 | 0.00 | 0.00 | 0.00 | 93 | 1012.2 |
| 20260507030051 | 8 | 0 | 0.0 | 0.0 | 0.00 | 0.00 | 0.00 | 93 | 1012.2 |
| 20260507024544 | 8 | 0 | 0.0 | 1.6 | 0.00 | 0.00 | 0.00 | 93 | 1012.2 |
| 20260507023040 | 8 | 0 | 0.0 | 0.0 | 0.00 | 0.00 | 0.00 | 93 | 1012.2 |
| 20260507021539 | 8 | 0 | 0.0 | 3.2 | 0.00 | 0.00 | 0.00 | 93 | 1012.3 |
| 20260507020039 | 9 | 0 | 0.0 | 0.0 | 0.00 | 0.00 | 0.00 | 92 | 1012.2 |
| 20260507014550 | 9 | 0 | 0.0 | 0.0 | 0.00 | 0.00 | 0.00 | 92 | 1012.3 |
| 20260507013045 | 10 | 0 | 0.0 | 0.0 | 0.00 | 0.00 | 0.00 | 92 | 1012.2 |
| 20260507011544 | 10 | 0 | 0.0 | 0.0 | 0.00 | 0.00 | 0.00 | 91 | 1012.2 |
| 20260507010044 | 10 | 228 | 0.0 | 1.6 | 0.00 | 0.00 | 0.00 | 91 | 1012.2 |
| 20260507004544 | 10 | 0 | 0.0 | 0.0 | 0.00 | 0.00 | 0.00 | 90 | 1012.3 |
| 20260507003051 | 10 | 0 | 0.0 | 1.6 | 0.00 | 0.00 | 0.00 | 90 | 1012.3 |
| 20260507001551 | 10 | 0 | 0.0 | 1.6 | 0.00 | 0.00 | 0.00 | 90 | 1012.4 |
| 20260507000043 | 10 | 0 | 0.0 | 1.6 | 0.00 | 0.00 | 0.00 | 89 | 1012.5 |
| 20260506234550 | 11 | 0 | 0.0 | 1.6 | 0.00 | 0.00 | 0.00 | 89 | 1012.5 |
| 20260506233043 | 11 | 0 | 0.0 | 0.0 | 0.00 | 0.00 | 0.00 | 88 | 1012.6 |
| 20260506231550 | 11 | 0 | 0.0 | 0.0 | 0.00 | 0.00 | 0.00 | 89 | 1012.6 |
| 20260506230046 | 11 | 0 | 0.0 | 0.0 | 0.00 | 0.00 | 0.00 | 89 | 1012.6 |
| 20260506224546 | 11 | 0 | 0.0 | 1.6 | 0.00 | 0.00 | 0.00 | 89 | 1012.6 |
| 20260506223040 | 11 | 0 | 0.0 | 1.6 | 0.00 | 0.00 | 0.00 | 89 | 1012.6 |
| 20260506221550 | 11 | 250 | 0.0 | 1.6 | 0.00 | 0.00 | 0.00 | 88 | 1012.7 |
| 20260506220056 | 11 | 0 | 0.0 | 1.6 | 0.00 | 0.00 | 0.00 | 88 | 1012.6 |
| 20260506214544 | 11 | 0 | 0.0 | 1.6 | 0.00 | 0.00 | 0.00 | 88 | 1012.5 |
| 20260506213105 | 11 | 0 | 0.0 | 1.6 | 0.00 | 0.00 | 0.00 | 86 | 1012.5 |
| 20260506211551 | 12 | 151 | 0.0 | 3.2 | 0.00 | 0.00 | 0.00 | 86 | 1012.4 |
| 20260506210047 | 12 | 0 | 0.0 | 3.2 | 0.00 | 0.00 | 0.00 | 86 | 1012.5 |
| 20260506204550 | 12 | 276 | 0.0 | 1.6 | 0.00 | 0.00 | 0.00 | 86 | 1012.2 |
| 20260506203043 | 13 | 136 | 0.0 | 1.6 | 0.00 | 0.00 | 0.00 | 87 | 1012.0 |
| 20260506201543 | 13 | 0 | 0.0 | 4.8 | 0.00 | 0.00 | 0.00 | 87 | 1011.8 |
| 20260506200043 | 13 | 146 | 0.0 | 8.0 | 0.00 | 0.00 | 0.00 | 86 | 1011.5 |
| 20260506194555 | 13 | 151 | 0.0 | 4.8 | 0.00 | 0.08 | 0.00 | 84 | 1011.3 |
| 20260506193057 | 13 | 217 | 0.0 | 1.6 | 0.00 | 0.08 | 0.00 | 81 | 1011.1 |
| 20260506191544 | 13 | 0 | 0.0 | 3.2 | 0.00 | 0.08 | 0.00 | 79 | 1010.9 |
| 20260506190052 | 13 | 0 | 0.0 | 3.2 | 0.00 | 0.08 | 0.00 | 75 | 1010.8 |
| 20260506184544 | 14 | 212 | 0.0 | 3.2 | 0.00 | 0.10 | 0.00 | 73 | 1010.7 |
| 20260506183051 | 14 | 0 | 1.6 | 8.0 | 0.00 | 0.10 | 0.00 | 71 | 1010.2 |
| 20260506181550 | 15 | 246 | 1.6 | 6.4 | 0.00 | 0.10 | 0.00 | 68 | 1010.0 |
| 20260506174550 | 16 | 219 | 3.2 | 16.1 | 0.00 | 0.25 | 0.00 | 63 | 1009.7 |
| 20260506173043 | 17 | 207 | 4.8 | 16.1 | 0.00 | 0.25 | 0.00 | 60 | 1009.6 |